Buckland, AK

7:50 AM AKST on January 22, 2018 (GMT -0900)
Buckland

Weather History for PABL - September, 2013

Change the Weather History Date:

Friday, September 27, 2013

  Actual Average (PASK) Record (PASK)
Temperature  
Mean Temperature 34 °F -  
Max Temperature 39 °F 38 °F 51 °F (2002)
Min Temperature 30 °F 29 °F 21 °F (2004)
Degree Days  
Heating Degree Days 30    
Moisture  
Dew Point 29 °F    
Average Humidity 78    
Maximum Humidity 93    
Minimum Humidity 60    
Precipitation  
Precipitation 0.00 in - - ()
Sea Level Pressure  
Sea Level Pressure 29.46 in    
Wind  
Wind Speed 8 mph (NW)    
Max Wind Speed 20 mph    
Max Gust Speed 25 mph    
Visibility 10 miles    
Events      
Averages and records for this station are not official NWS values.
T = Trace of Precipitation, MM = Missing Value Source: NWS Daily Summary

Daily Weather History Graph

Daily Weather History Graph

Search for Another Location

Airport or City:

Trip Planner

Search our weather history database for the weather conditions in past years. The results will help you decide how hot, cold, wet, or windy it might be!

Date:

Astronomy

Sep. 27, 2013 Rise Set
Actual Time 8:44 AM AKDT 8:24 PM AKDT
Civil Twilight 7:53 AM AKDT 9:15 PM AKDT
Nautical Twilight 6:51 AM AKDT 10:16 PM AKDT
Astronomical Twilight 5:41 AM AKDT 11:25 PM AKDT
Moon No Moon Rise 6:23 PM AKDT (9/27)
Length of Visible Light 13h 22m
Length of Day
11h 40m
Last Quarter, 44% of the Moon is Illuminated
Sep 27
Last Quarter
Oct 4
New
Oct 11
First Quarter
Oct 18
Full
Oct 26
Last Quarter

Hourly Weather History & Observations

Time (AKDT) Temp. Windchill Dew Point Humidity Pressure Visibility Wind Dir Wind Speed Gust Speed Precip Events Conditions
12:16 AM 33.8 °F 30.8 °F 30.2 °F 87% 29.38 in 10.0 mi NW 3.5 mph - N/A   Overcast
12:36 AM 33.8 °F - 30.2 °F 87% 29.38 in 10.0 mi Calm Calm - N/A   Overcast
12:56 AM 35.6 °F 32.8 °F 30.2 °F 81% 29.38 in 10.0 mi NW 3.5 mph - N/A   Overcast
1:16 AM 35.6 °F 32.8 °F 30.2 °F 81% 29.38 in 10.0 mi NNW 3.5 mph - N/A   Overcast
1:36 AM 35.6 °F 30.7 °F 30.2 °F 81% 29.38 in 10.0 mi NW 5.8 mph - N/A   Overcast
1:56 AM 33.8 °F 30.8 °F 30.2 °F 87% 29.37 in 10.0 mi WNW 3.5 mph - N/A   Overcast
2:16 AM 33.8 °F - 30.2 °F 87% 29.37 in 10.0 mi Calm Calm - N/A   Overcast
2:36 AM 33.8 °F 29.6 °F 30.2 °F 87% 29.37 in 10.0 mi NW 4.6 mph - N/A   Overcast
2:56 AM 33.8 °F 28.6 °F 32.0 °F 93% 29.37 in 10.0 mi NW 5.8 mph - N/A   Overcast
3:16 AM 33.8 °F 29.6 °F 30.2 °F 87% 29.37 in 10.0 mi WNW 4.6 mph - N/A   Overcast
3:36 AM 33.8 °F 28.6 °F 32.0 °F 93% 29.37 in 10.0 mi NW 5.8 mph - N/A   Overcast
3:56 AM 33.8 °F 27.0 °F 32.0 °F 93% 29.36 in 10.0 mi NW 8.1 mph - N/A   Overcast
4:16 AM 33.8 °F 26.4 °F 32.0 °F 93% 29.36 in 10.0 mi WNW 9.2 mph - N/A   Overcast
4:36 AM 33.8 °F 26.4 °F 30.2 °F 87% 29.37 in 10.0 mi NNW 9.2 mph - N/A   Overcast
4:56 AM 33.8 °F 25.8 °F 30.2 °F 87% 29.37 in 10.0 mi North 10.4 mph - N/A   Overcast
5:16 AM 33.8 °F 26.4 °F 30.2 °F 87% 29.38 in 10.0 mi North 9.2 mph - N/A   Overcast
5:36 AM 33.8 °F 25.8 °F 30.2 °F 87% 29.38 in 10.0 mi North 10.4 mph - N/A   Overcast
5:56 AM 33.8 °F 26.4 °F 32.0 °F 93% 29.38 in 10.0 mi NNW 9.2 mph - N/A   Overcast
6:16 AM 33.8 °F 27.7 °F 32.0 °F 93% 29.38 in 10.0 mi NNW 6.9 mph - N/A   Overcast
6:36 AM 33.8 °F 27.0 °F 32.0 °F 93% 29.39 in 10.0 mi NNW 8.1 mph - N/A   Overcast
6:56 AM 33.8 °F 26.4 °F 30.2 °F 87% 29.39 in 10.0 mi North 9.2 mph - N/A   Overcast
7:16 AM 35.6 °F 27.1 °F 32.0 °F 87% 29.40 in 10.0 mi NNW 12.7 mph - N/A   Overcast
7:36 AM 35.6 °F 28.0 °F 30.2 °F 81% 29.41 in 10.0 mi NNW 10.4 mph - N/A   Mostly Cloudy
7:56 AM 35.6 °F 28.0 °F 30.2 °F 81% 29.41 in 10.0 mi NNW 10.4 mph - N/A   Overcast
8:16 AM 35.6 °F 29.2 °F 30.2 °F 81% 29.42 in 10.0 mi NNW 8.1 mph - N/A   Overcast
8:36 AM 35.6 °F 28.6 °F 30.2 °F 81% 29.42 in 10.0 mi NNW 9.2 mph - N/A   Overcast
8:56 AM 33.8 °F 25.3 °F 30.2 °F 87% 29.42 in 10.0 mi NNW 11.5 mph - N/A   Overcast
9:16 AM 33.8 °F 25.3 °F 28.4 °F 81% 29.43 in 10.0 mi North 11.5 mph - N/A   Overcast
9:36 AM 33.8 °F 25.3 °F 30.2 °F 87% 29.43 in 10.0 mi NNW 11.5 mph - N/A   Overcast
9:56 AM 35.6 °F 28.6 °F 28.4 °F 75% 29.44 in 10.0 mi NNW 9.2 mph - N/A   Overcast
10:16 AM 35.6 °F 28.0 °F 30.2 °F 81% 29.45 in 10.0 mi NNW 10.4 mph - N/A   Overcast
10:36 AM 35.6 °F 29.2 °F 30.2 °F 81% 29.45 in 10.0 mi NNW 8.1 mph - N/A   Overcast
10:56 AM 35.6 °F 29.2 °F 30.2 °F 81% 29.45 in 10.0 mi NNW 8.1 mph - N/A   Overcast
11:16 AM 35.6 °F 29.9 °F 28.4 °F 75% 29.46 in 10.0 mi North 6.9 mph - N/A   Overcast
11:36 AM 35.6 °F 29.2 °F 30.2 °F 81% 29.46 in 10.0 mi NNW 8.1 mph - N/A   Overcast
11:56 AM 37.4 °F 30.8 °F 30.2 °F 75% 29.47 in 10.0 mi NNW 9.2 mph - N/A   Overcast
12:16 PM 37.4 °F 31.4 °F 30.2 °F 75% 29.47 in 10.0 mi NNW 8.1 mph - N/A   Overcast
12:36 PM 37.4 °F 28.9 °F 30.2 °F 75% 29.48 in 10.0 mi NNW 13.8 mph - N/A   Overcast
12:56 PM 37.4 °F 30.8 °F 30.2 °F 75% 29.48 in 10.0 mi North 9.2 mph - N/A   Overcast
1:16 PM 39.2 °F 30.8 °F 28.4 °F 65% 29.48 in 10.0 mi NW 15.0 mph - N/A   Overcast
1:36 PM 39.2 °F 30.5 °F 28.4 °F 65% 29.49 in 10.0 mi NNW 16.1 mph 20.7 mph N/A   Overcast
1:56 PM 37.4 °F 28.5 °F 28.4 °F 70% 29.50 in 10.0 mi NNW 15.0 mph 18.4 mph N/A   Overcast
2:16 PM 39.2 °F 30.2 °F 28.4 °F 65% 29.50 in 10.0 mi NW 17.3 mph - N/A   Overcast
2:36 PM 39.2 °F 30.8 °F 30.2 °F 70% 29.50 in 10.0 mi NW 15.0 mph 18.4 mph N/A   Overcast
2:56 PM 39.2 °F 30.2 °F 30.2 °F 70% 29.50 in 10.0 mi WNW 17.3 mph - N/A   Overcast
3:16 PM 39.2 °F 29.8 °F 28.4 °F 65% 29.50 in 10.0 mi WNW 18.4 mph 24.2 mph N/A   Overcast
3:36 PM 39.2 °F 30.2 °F 28.4 °F 65% 29.50 in 10.0 mi WNW 17.3 mph 23.0 mph N/A   Mostly Cloudy
3:56 PM 39.2 °F 30.2 °F 26.6 °F 61% 29.51 in 10.0 mi NW 17.3 mph 21.9 mph N/A   Mostly Cloudy
4:16 PM 39.2 °F 29.6 °F 28.4 °F 65% 29.51 in 10.0 mi NW 19.6 mph 23.0 mph N/A   Partly Cloudy
4:36 PM 39.2 °F 29.6 °F 26.6 °F 61% 29.51 in 10.0 mi WNW 19.6 mph 25.3 mph N/A   Clear
4:56 PM 39.2 °F 29.8 °F 26.6 °F 61% 29.51 in 10.0 mi NW 18.4 mph 24.2 mph N/A   Partly Cloudy
5:16 PM 39.2 °F 29.8 °F 26.6 °F 61% 29.51 in 10.0 mi NW 18.4 mph 24.2 mph N/A   Partly Cloudy
5:36 PM 39.2 °F 30.2 °F 26.6 °F 61% 29.52 in 10.0 mi NW 17.3 mph - N/A   Partly Cloudy
5:56 PM 39.2 °F 30.5 °F 26.6 °F 61% 29.52 in 10.0 mi WNW 16.1 mph 25.3 mph N/A   Clear
6:16 PM 37.4 °F 27.5 °F 26.6 °F 65% 29.52 in 10.0 mi NW 18.4 mph 23.0 mph N/A   Clear
6:36 PM 37.4 °F 28.2 °F 26.6 °F 65% 29.53 in 10.0 mi NW 16.1 mph 20.7 mph N/A   Clear
6:56 PM 37.4 °F 27.8 °F 26.6 °F 65% 29.53 in 10.0 mi NW 17.3 mph - N/A   Clear
7:16 PM 37.4 °F 29.8 °F 24.8 °F 60% 29.53 in 10.0 mi NW 11.5 mph 18.4 mph N/A   Clear
7:36 PM 37.4 °F 30.3 °F 26.6 °F 65% 29.54 in 10.0 mi WNW 10.4 mph - N/A   Clear
7:56 PM 35.6 °F 28.0 °F 24.8 °F 65% 29.54 in 10.0 mi WNW 10.4 mph - N/A   Clear
8:16 PM 33.8 °F 25.3 °F 26.6 °F 75% 29.55 in 10.0 mi WNW 11.5 mph - N/A   Clear
8:36 PM 33.8 °F 25.8 °F 26.6 °F 75% 29.55 in 10.0 mi WNW 10.4 mph - N/A   Clear
8:56 PM 32.0 °F 23.0 °F 24.8 °F 75% 29.55 in 10.0 mi WNW 11.5 mph - N/A   Clear
9:16 PM 32.0 °F 23.0 °F 24.8 °F 75% 29.56 in 10.0 mi WNW 11.5 mph - N/A   Clear
9:36 PM 30.2 °F 21.9 °F 24.8 °F 80% 29.56 in 10.0 mi WNW 9.2 mph - N/A   Clear
9:56 PM 30.2 °F 22.6 °F 24.8 °F 80% 29.57 in 10.0 mi WNW 8.1 mph - N/A   Clear
10:16 PM 30.2 °F 21.9 °F 24.8 °F 80% 29.57 in 10.0 mi WNW 9.2 mph - N/A   Clear
10:36 PM 30.2 °F 21.9 °F 24.8 °F 80% 29.58 in 10.0 mi WNW 9.2 mph - N/A   Clear
10:56 PM 30.2 °F 21.9 °F 24.8 °F 80% 29.58 in 10.0 mi WNW 9.2 mph - N/A   Clear
11:16 PM 30.2 °F 22.6 °F 24.8 °F 80% 29.58 in 10.0 mi WNW 8.1 mph - N/A   Clear
11:36 PM 30.2 °F 21.9 °F 24.8 °F 80% 29.58 in 10.0 mi WNW 9.2 mph - N/A   Clear
11:56 PM 30.2 °F 21.3 °F 24.8 °F 80% 29.59 in 10.0 mi WNW 10.4 mph - N/A   Clear